TimeEDT,TemperatureF,Dew PointF,Humidity,Sea Level PressureIn,VisibilityMPH,Wind Direction,Wind SpeedMPH,Gust SpeedMPH,PrecipitationIn,Events,Conditions,WindDirDegrees,DateUTC
12:20 AM,37.4,35.6,93,29.78,7.0,NE,5.8,-,0.02,Rain,Light Rain,40,2013-04-13 04:20:00
12:53 AM,37.9,35.1,89,29.80,7.0,North,9.2,-,0.03,Rain,Light Rain,10,2013-04-13 04:53:00
1:14 AM,37.4,33.8,87,29.76,7.0,NNE,11.5,-,0.02,Rain,Light Rain,20,2013-04-13 05:14:00
1:48 AM,37.4,33.8,87,29.78,10.0,North,9.2,-,0.03,Rain,Light Rain,10,2013-04-13 05:48:00
1:53 AM,37.9,34.0,86,29.78,10.0,North,8.1,-,0.03,Rain,Light Rain,10,2013-04-13 05:53:00
2:53 AM,37.9,34.0,86,29.79,10.0,North,6.9,-,0.00,,Overcast,10,2013-04-13 06:53:00
3:25 AM,37.4,33.8,87,29.80,10.0,NNW,3.5,-,N/A,,Overcast,340,2013-04-13 07:25:00
3:53 AM,37.9,33.1,83,29.82,10.0,NNW,6.9,-,N/A,,Overcast,340,2013-04-13 07:53:00
4:46 AM,37.4,33.8,87,29.83,10.0,Calm,Calm,-,N/A,,Overcast,0,2013-04-13 08:46:00
4:53 AM,37.9,34.0,86,29.84,10.0,Calm,Calm,-,N/A,,Overcast,0,2013-04-13 08:53:00
5:14 AM,37.4,33.8,87,29.83,10.0,NNE,3.5,-,N/A,,Overcast,30,2013-04-13 09:14:00
5:53 AM,37.9,32.0,79,29.83,10.0,NNE,3.5,-,N/A,,Overcast,20,2013-04-13 09:53:00
6:53 AM,37.9,33.1,83,29.85,10.0,Calm,Calm,-,N/A,,Mostly Cloudy,0,2013-04-13 10:53:00
7:53 AM,39.9,34.0,79,29.87,10.0,Calm,Calm,-,N/A,,Overcast,0,2013-04-13 11:53:00
8:53 AM,43.0,35.1,74,29.88,10.0,Calm,Calm,-,N/A,,Mostly Cloudy,0,2013-04-13 12:53:00
9:53 AM,44.1,35.1,71,29.89,10.0,Variable,3.5,-,N/A,,Overcast,0,2013-04-13 13:53:00
10:53 AM,46.0,34.0,63,29.90,10.0,NW,3.5,-,N/A,,Overcast,320,2013-04-13 14:53:00
11:53 AM,48.9,34.0,56,29.89,10.0,Variable,4.6,-,N/A,,Overcast,0,2013-04-13 15:53:00
12:53 PM,51.1,32.0,48,29.88,10.0,Variable,3.5,-,N/A,,Overcast,0,2013-04-13 16:53:00
1:53 PM,52.0,30.9,45,29.87,10.0,West,8.1,-,N/A,,Overcast,280,2013-04-13 17:53:00
2:53 PM,52.0,32.0,47,29.86,10.0,Variable,4.6,-,N/A,,Overcast,0,2013-04-13 18:53:00
3:53 PM,53.1,32.0,45,29.86,10.0,Variable,3.5,-,N/A,,Overcast,0,2013-04-13 19:53:00
4:53 PM,53.1,32.0,45,29.86,10.0,SW,6.9,-,N/A,,Overcast,220,2013-04-13 20:53:00
5:53 PM,52.0,33.1,49,29.88,10.0,South,10.4,-,N/A,,Overcast,180,2013-04-13 21:53:00
6:53 PM,51.1,33.1,50,29.89,10.0,South,6.9,-,N/A,,Overcast,190,2013-04-13 22:53:00
8:53 PM,48.9,32.0,52,29.93,10.0,WSW,4.6,-,N/A,,Clear,250,2013-04-14 00:53:00
9:53 PM,42.1,33.1,70,29.96,10.0,WSW,4.6,-,N/A,,Partly Cloudy,240,2013-04-14 01:53:00
10:53 PM,42.1,34.0,73,29.95,10.0,Calm,Calm,-,N/A,,Overcast,0,2013-04-14 02:53:00
11:53 PM,43.0,35.1,74,29.95,10.0,WSW,3.5,-,N/A,,Overcast,240,2013-04-14 03:53:00